Change the Weather History Date:

Sunday, September 29, 2013

  Actual Average Record
Temperature  
Mean Temperature 58 °F -  
Max Temperature 66 °F 75 °F 90 °F (1976)
Min Temperature 51 °F 48 °F 32 °F (1985)
Degree Days  
Heating Degree Days 8    
Growing Degree Days 8 (Base 50)    
Moisture  
Dew Point 44 °F    
Average Humidity 61    
Maximum Humidity 89    
Minimum Humidity 48    
Precipitation  
Precipitation 0.19 in - - ()
Sea Level Pressure  
Sea Level Pressure 29.65 in    
Wind  
Wind Speed 16 mph (South)    
Max Wind Speed 29 mph    
Max Gust Speed 43 mph    
Visibility 9 miles    
Events Rain    
Averages and records for this station are not official NWS values.
T = Trace of Precipitation, MM = Missing Value Source: NWS Daily Summary

Daily Weather History Graph

Daily Weather History Graph

Search for Another Location

Airport or City:

Trip Planner

Search our weather history database for the weather conditions in past years. The results will help you decide how hot, cold, wet, or windy it might be!

Date:

Astronomy

Sep. 29, 2013 Rise Set
Actual Time 6:49 AM PDT 6:36 PM PDT
Civil Twilight 6:19 AM PDT 7:06 PM PDT
Nautical Twilight 5:44 AM PDT 7:40 PM PDT
Astronomical Twilight 5:09 AM PDT 8:16 PM PDT
Moon 1:20 AM PDT (9/29) 3:48 PM PDT (9/29)
Length of Visible Light 12h 46m
Length of Day
11h 46m
Waning Crescent, 26% of the Moon is Illuminated
Sep 29
Waning Crescent
Oct 4
New
Oct 11
First Quarter
Oct 18
Full
Oct 26
Last Quarter

Hourly Weather History & Observations

Time (PDT) Temp. Dew Point Humidity Pressure Visibility Wind Dir Wind Speed Gust Speed Precip Events Conditions
12:05 AM 53.6 °F 46.4 °F 77% 29.65 in 10.0 mi West 17.3 mph 26.5 mph 0.01 in Rain Light Rain
12:42 AM 51.8 °F 46.4 °F 82% 29.69 in 2.5 mi WSW 10.4 mph - 0.08 in Rain Rain
12:50 AM 51.8 °F 48.2 °F 88% 29.70 in 4.0 mi SW 11.5 mph - 0.09 in Rain Rain
12:53 AM 51.1 °F 48.0 °F 89% 29.70 in 4.0 mi SSW 11.5 mph - 0.10 in Rain Rain
1:14 AM 51.8 °F 48.2 °F 88% 29.72 in 4.0 mi South 17.3 mph 27.6 mph 0.03 in Rain Rain
1:53 AM 51.1 °F 46.9 °F 86% 29.70 in 10.0 mi SSE 15.0 mph - 0.06 in Rain Light Rain
2:53 AM 53.1 °F 45.0 °F 74% 29.68 in 10.0 mi South 19.6 mph 26.5 mph 0.01 in   Overcast
3:53 AM 54.0 °F 44.1 °F 69% 29.69 in 10.0 mi South 19.6 mph 25.3 mph 0.00 in   Overcast
4:53 AM 55.0 °F 43.0 °F 64% 29.68 in 10.0 mi SSW 18.4 mph - N/A   Partly Cloudy
5:53 AM 57.0 °F 41.0 °F 55% 29.71 in 10.0 mi Variable 3.5 mph - N/A   Clear
6:53 AM 55.0 °F 41.0 °F 59% 29.69 in 10.0 mi South 13.8 mph - N/A   Clear
7:53 AM 55.9 °F 41.0 °F 57% 29.68 in 10.0 mi South 13.8 mph - N/A   Mostly Cloudy
8:53 AM 57.9 °F 41.0 °F 53% 29.70 in 10.0 mi South 17.3 mph - N/A   Mostly Cloudy
9:53 AM 59.0 °F 41.0 °F 51% 29.71 in 10.0 mi South 12.7 mph - N/A   Overcast
10:53 AM 60.1 °F 42.1 °F 51% 29.71 in 10.0 mi South 9.2 mph - N/A   Overcast
11:53 AM 60.1 °F 41.0 °F 49% 29.73 in 10.0 mi South 16.1 mph 24.2 mph N/A   Overcast
12:53 PM 60.1 °F 41.0 °F 49% 29.70 in 10.0 mi South 18.4 mph - 0.00 in   Overcast
1:53 PM 61.0 °F 41.0 °F 48% 29.71 in 10.0 mi South 13.8 mph - N/A   Overcast
2:53 PM 61.0 °F 41.0 °F 48% 29.69 in 10.0 mi South 18.4 mph - N/A   Overcast
3:53 PM 61.0 °F 41.0 °F 48% 29.68 in 10.0 mi South 17.3 mph 26.5 mph N/A   Mostly Cloudy
4:53 PM 61.0 °F 41.0 °F 48% 29.66 in 10.0 mi South 16.1 mph - N/A   Overcast
5:53 PM 57.9 °F 45.0 °F 62% 29.65 in 10.0 mi South 13.8 mph - 0.00 in Rain Light Rain
6:53 PM 59.0 °F 44.1 °F 58% 29.63 in 10.0 mi South 17.3 mph - 0.00 in   Overcast
7:53 PM 60.1 °F 43.0 °F 53% 29.59 in 10.0 mi South 21.9 mph 32.2 mph 0.00 in   Overcast
8:53 PM 59.0 °F 46.0 °F 62% 29.56 in 10.0 mi South 24.2 mph 29.9 mph 0.02 in Rain Light Rain
9:53 PM 62.1 °F 45.0 °F 53% 29.48 in 10.0 mi SSE 18.4 mph 28.8 mph 0.00 in   Overcast
10:53 PM 64.0 °F 44.1 °F 48% 29.40 in 10.0 mi South 28.8 mph 38.0 mph N/A   Mostly Cloudy
11:53 PM 64.0 °F 46.0 °F 52% 29.40 in 10.0 mi South 23.0 mph 42.6 mph 0.00 in   Overcast